Home   Weather   L'viv   Past weeks

Flag for Ukraine Past Weather in L'viv, Ukraine — Yesterday and Last 2 Weeks

Now
30 °F

Low clouds.


Feels Like: 24 °F
Forecast: 17 / 26 °F
Wind: 6 mph from South

Location: L'Viv Airport

Current Time: Jan 22, 2017 at 8:24:47 pm

Latest Report: Jan 22, 2017 at 8:00 pm


Visibility: 4 mi

Pressure: 30.48 "Hg

Humidity: 93%

Dew Point: 28 °F

Location of L'vivLocation

Past Weather in L'viv — Graph

°F

L'viv Temperature Yesterday

Maximum temperature yesterday: 32 °F (at 11:00 am)
Minimum temperature yesterday: 28 °F (at 12:00 am)
Average temperature yesterday: 31 °F

High & Low Weather Summary for the Past Weeks

 TemperatureHumidityPressure
High37 °F (Jan 13, 3:30 pm)100% (Jan 14, 1:00 am)30.69 "Hg (Jan 14, 1:00 am)
Low-4 °F (Jan 7, 11:30 pm)36% (Jan 8, 1:30 pm)29.33 "Hg (Jan 14, 5:00 am)
Average20 °F88%30.16 "Hg
* Reported Jan 7 7:00 pm — Jan 22 7:00 pm, L'viv, Weather by CustomWeather, © 2017

Note: Actual official high and low records may vary slightly from our data, if they occured in-between our weather recording intervals... More about our weather records

Advertising

L'viv Weather History for the Previous 24 Hours

Scroll right to see more
 ConditionsComfort  
Time TempWeatherWind HumidityBarometerVisibility
7:00 pm
Sun, Jan 22
30 °FLow clouds.6 mph93%30.48 "Hg4 mi
6:30 pm30 °FLow clouds.6 mph93%30.48 "Hg4 mi
6:00 pm30 °FLow clouds.3 mph100%30.48 "HgN/A
5:30 pm30 °FLow clouds.3 mph100%30.48 "HgN/A
5:00 pm32 °FLow clouds.3 mph93%30.48 "HgN/A
4:30 pm32 °FLow clouds.3 mph93%30.48 "HgN/A
4:00 pm32 °FLow clouds.3 mph93%30.48 "HgN/A
3:30 pm32 °FLow clouds.3 mph93%30.51 "HgN/A
3:00 pm32 °FLow clouds.3 mph93%30.51 "HgN/A
2:30 pm32 °FLow clouds.1 mph93%30.51 "HgN/A
2:00 pm32 °FLow clouds.3 mph93%30.51 "HgN/A
1:30 pm32 °FLow clouds.1 mph93%30.51 "HgN/A
1:00 pm32 °FLow clouds.3 mph93%30.51 "HgN/A
12:30 pm32 °FLow clouds.3 mph93%30.51 "HgN/A
12:00 pm32 °FLow clouds.3 mph93%30.54 "Hg6 mi
11:30 am32 °FLow clouds.3 mph93%30.54 "Hg6 mi
11:00 am32 °FLow clouds.1 mph93%30.54 "Hg4 mi
10:30 am32 °FLow clouds.1 mph93%30.54 "Hg6 mi
10:00 am32 °FIce fog.1 mph93%30.54 "Hg3 mi
9:30 am32 °FIce fog.No wind93%30.54 "Hg3 mi
9:00 am32 °FIce fog.1 mph93%30.54 "Hg3 mi
8:30 am32 °FIce fog.No wind93%30.51 "Hg2 mi
8:00 am32 °FIce fog.1 mph93%30.51 "Hg2 mi
7:30 am32 °FDrizzle. Ice fog.1 mph93%30.51 "Hg1 mi
7:00 am32 °FIce fog.1 mph93%30.51 "Hg1 mi
6:30 am32 °FIce fog.1 mph100%30.51 "Hg2 mi
6:00 am32 °FIce fog.1 mph100%30.51 "Hg1 mi
5:30 am32 °FDrizzle. Ice fog.1 mph100%30.51 "Hg1 mi
5:00 am32 °FDrizzle. Ice fog.1 mph100%30.51 "Hg1 mi
4:43 am32 °FDrizzle. Ice fog.1 mph100%30.51 "Hg1 mi
4:30 am32 °FIce fog.3 mph100%30.51 "Hg1 mi
4:00 am32 °FIce fog.3 mph100%30.51 "Hg1 mi
3:30 am32 °FIce fog.1 mph93%30.51 "Hg1 mi
3:17 am32 °FIce fog.3 mph93%30.51 "Hg1 mi
3:00 am32 °FIce fog.3 mph93%30.51 "Hg1 mi
2:30 am32 °FIce fog.3 mph100%30.51 "Hg1 mi
2:00 am32 °FIce fog.3 mph100%30.51 "Hg1 mi
1:30 am32 °FIce fog.3 mph100%30.51 "Hg2 mi
1:00 am32 °FIce fog.3 mph100%30.51 "Hg1 mi
12:30 am32 °FIce fog.3 mph100%30.48 "Hg1 mi
12:00 am32 °FDrizzle. Ice fog.3 mph100%30.48 "Hg1 mi
11:30 pm
Sat, Jan 21
32 °FDrizzle. Ice fog.3 mph100%30.48 "Hg1 mi
11:00 pm32 °FDrizzle. Ice fog.6 mph100%30.48 "Hg1 mi
10:30 pm32 °FDrizzle. Ice fog.6 mph93%30.48 "Hg1 mi
10:00 pm32 °FDrizzle. Ice fog.6 mph100%30.45 "Hg1 mi
9:30 pm32 °FDrizzle. Ice fog.6 mph100%30.45 "Hg1 mi
9:00 pm32 °FDrizzle. Ice fog.6 mph100%30.45 "Hg1 mi
8:30 pm32 °FDrizzle. Ice fog.6 mph100%30.45 "Hg1 mi
8:00 pm32 °FIce fog.6 mph100%30.45 "Hg1 mi
Weather by CustomWeather, © 2017

See weather overviewHow to use our weather pages